Date,TemperatureHighF,TemperatureAvgF,TemperatureLowF,DewpointHighF,DewpointAvgF,DewpointLowF,HumidityHigh,HumidityAvg,HumidityLow,PressureMaxIn,PressureMinIn,WindSpeedMaxMPH,WindSpeedAvgMPH,GustSpeedMaxMPH,PrecipitationSumIn
2013-1-1,64.9,50.3,40.5,42.0,32.0,19.5,78,53,31,29.74,29.59,6,0,6,0.00
2013-1-2,70.0,53.1,41.7,32.7,24.6,16.8,56,34,23,29.62,29.53,8,1,8,0.00
2013-1-3,75.2,52.6,39.4,40.9,27.7,20.8,56,40,20,29.68,29.53,5,1,5,0.00
2013-1-4,72.3,52.4,40.6,33.0,22.7,16.7,40,32,19,29.79,29.65,6,1,6,7.54
2013-1-5,69.1,51.0,38.8,38.7,28.0,16.7,77,43,25,29.79,29.65,4,1,4,0.00
2013-1-6,61.2,49.7,42.4,54.2,42.7,34.4,98,79,50,29.71,29.50,4,3,4,0.13
2013-1-7,71.2,52.0,41.7,43.7,37.7,28.5,98,64,23,29.59,29.47,8,4,8,0.00
2013-1-8,73.6,54.2,41.5,47.5,40.0,30.6,93,62,33,29.62,29.50,5,1,5,0.00
2013-1-9,73.4,56.2,46.8,51.4,44.5,35.5,93,68,33,29.62,29.50,2,1,2,0.00
2013-1-10,60.4,51.5,44.6,50.5,37.8,21.5,98,63,37,29.59,29.41,12,3,12,0.00
2013-1-11,60.1,45.4,33.6,32.2,24.6,17.7,70,46,26,29.68,29.53,9,4,9,0.00
2013-1-12,60.4,44.3,32.9,29.6,23.9,18.0,61,46,26,29.65,29.56,6,1,6,0.00
2013-1-13,61.3,44.6,34.2,28.9,24.2,20.3,63,47,26,29.65,29.53,0,0,0,0.00
2013-1-14,61.9,45.8,35.1,21.0,12.6,7.2,54,27,16,29.82,29.59,5,1,5,0.00
2013-1-15,64.6,47.0,34.3,27.8,18.5,6.6,51,33,24,29.94,29.79,5,2,5,0.00
2013-1-16,73.0,53.4,38.1,36.9,28.8,21.6,55,40,24,29.85,29.59,3,3,3,0.00
2013-1-17,86.2,61.8,46.6,35.8,25.8,18.5,47,27,13,29.68,29.53,3,3,3,7.67
2013-1-18,85.6,62.6,48.9,36.8,24.2,16.4,30,24,14,29.65,29.53,3,3,3,0.00
2013-1-19,84.6,64.5,51.4,36.8,24.5,17.2,29,22,14,29.68,29.53,3,3,3,0.00
2013-1-20,86.0,68.4,50.7,34.8,23.8,15.3,27,19,13,29.65,29.47,3,2,3,7.67
2013-1-21,84.7,63.9,50.5,36.5,21.9,13.5,28,21,13,29.59,29.47,5,2,5,7.67
2013-1-22,86.4,63.3,48.2,34.7,21.4,11.6,26,21,13,29.59,29.47,2,2,2,7.67
2013-1-23,78.8,64.5,56.5,44.4,29.5,20.6,58,28,21,29.65,29.47,4,2,4,7.67
2013-1-24,73.4,60.2,54.0,57.0,51.3,43.0,93,74,45,29.68,29.59,6,1,6,7.67
2013-1-25,67.1,60.6,57.6,62.2,58.9,54.5,98,94,81,29.62,29.41,2,1,2,7.67
2013-1-26,70.3,59.8,54.5,64.2,58.3,54.0,98,95,69,29.50,29.35,4,1,4,8.50
2013-1-27,63.0,55.7,51.4,55.0,50.3,42.1,98,84,50,29.56,29.47,8,1,8,7.67